�������r�C�����j�^�v���󋵏��
Date,Time,5�C6���@���p�r�C��,����,����(m/s)
2022/03/04,00:00,4.1,��,4.0
2022/03/04,00:10,3.8,��,4.5
2022/03/04,00:20,4.1,��,4.0
2022/03/04,00:30,4.0,��,5.6
2022/03/04,00:40,4.2,��,6.2
2022/03/04,00:50,4.0,��,6.0
2022/03/04,01:00,4.0,��,6.6
2022/03/04,01:10,4.0,���쐼,6.3
2022/03/04,01:20,4.0,��,7.1
2022/03/04,01:30,4.2,��,6.4
2022/03/04,01:40,3.9,���쐼,5.3
2022/03/04,01:50,4.0,��,4.5
2022/03/04,02:00,4.0,��,4.6
2022/03/04,02:10,4.1,���k��,4.2
2022/03/04,02:20,4.0,���k��,4.0
2022/03/04,02:30,3.8,���k��,3.9
2022/03/04,02:40,4.1,���k��,1.9
2022/03/04,02:50,4.1,�k��,1.2
2022/03/04,03:00,4.0,��,1.9
2022/03/04,03:10,3.9,���쐼,2.3
2022/03/04,03:20,4.0,��,4.5
2022/03/04,03:30,4.0,���k��,4.4
2022/03/04,03:40,4.0,���k��,5.3
2022/03/04,03:50,4.0,�k��,7.5
2022/03/04,04:00,4.2,���k��,8.6
2022/03/04,04:10,4.0,�k��,8.3
2022/03/04,04:20,4.1,���k��,7.2
2022/03/04,04:30,4.2,���k��,6.9
2022/03/04,04:40,4.1,���k��,4.7
2022/03/04,04:50,4.1,���k��,4.3
2022/03/04,05:00,4.0,���k��,5.1
2022/03/04,05:10,4.0,���k��,5.2
2022/03/04,05:20,3.9,���k��,7.0
2022/03/04,05:30,4.0,���k��,6.9
2022/03/04,05:40,4.1,���k��,5.0
2022/03/04,05:50,4.2,���k��,3.1
2022/03/04,06:00,4.0,���쐼,1.5
2022/03/04,06:10,4.0,�쓌,2.0
2022/03/04,06:20,4.1,�k�k��,2.0
2022/03/04,06:30,4.1,�k��,3.4
2022/03/04,06:40,4.1,���k��,4.5
2022/03/04,06:50,4.0,���k��,5.3
2022/03/04,07:00,4.0,�k��,5.2
2022/03/04,07:10,4.0,���k��,5.7
2022/03/04,07:20,4.1,�k��,6.1
2022/03/04,07:30,4.1,�k��,4.4
2022/03/04,07:40,4.0,�k��,4.0
2022/03/04,07:50,4.1,�k��,4.8
2022/03/04,08:00,3.8,�k�k��,4.4
2022/03/04,08:10,4.0,�k��,2.0
2022/03/04,08:20,4.2,���k��,4.7
2022/03/04,08:30,4.1,���k��,4.0
2022/03/04,08:40,4.0,���k��,5.7
2022/03/04,08:50,3.8,��,4.8
2022/03/04,09:00,4.1,��,6.8
2022/03/04,09:10,4.1,���k��,5.2
2022/03/04,09:20,3.9,���k��,3.0
2022/03/04,09:30,4.0,���k��,5.3
2022/03/04,09:40,4.0,���k��,4.7
2022/03/04,09:50,3.9,��,4.8
2022/03/04,10:00,4.1,��,6.5
2022/03/04,10:10,4.2,���쐼,6.0
2022/03/04,10:20,4.1,���k��,6.7
2022/03/04,10:30,4.0,��,7.2
2022/03/04,10:40,3.9,���쐼,5.2
2022/03/04,10:50,4.0,���쐼,2.2
2022/03/04,11:00,4.1,���쓌,4.8
2022/03/04,11:10,4.0,��,5.2
2022/03/04,11:20,4.1,��,4.8
2022/03/04,11:30,4.1,��,5.2
2022/03/04,11:40,4.1,��,5.2
2022/03/04,11:50,3.9,���쓌,4.6
2022/03/04,12:00,3.9,���쓌,4.6
2022/03/04,12:10,4.1,�쓌,5.5
2022/03/04,12:20,4.1,�쓌,7.1
2022/03/04,12:30,4.1,�쓌,7.6
2022/03/04,12:40,4.2,�쓌,5.8
2022/03/04,12:50,4.2,�쓌,6.7
2022/03/04,13:00,4.2,��쓌,7.0
2022/03/04,13:10,4.1,��쓌,6.7
2022/03/04,13:20,4.0,��쓌,5.7
2022/03/04,13:30,3.9,��쓌,7.4
2022/03/04,13:40,3.9,��쓌,7.9
2022/03/04,13:50,4.0,��쓌,8.1
2022/03/04,14:00,3.9,��쓌,8.2
2022/03/04,14:10,3.9,��쓌,8.9
2022/03/04,14:20,3.8,��쓌,7.8
2022/03/04,14:30,4.0,��쓌,8.3
2022/03/04,14:40,3.9,��쓌,7.8
2022/03/04,14:50,4.0,��쓌,7.2
2022/03/04,15:00,4.1,��쓌,6.9
2022/03/04,15:10,4.0,��쓌,8.1
2022/03/04,15:20,4.0,��쓌,8.3
2022/03/04,15:30,4.1,��쓌,7.2
2022/03/04,15:40,3.9,��쓌,7.1
2022/03/04,15:50,4.1,��쓌,7.2
2022/03/04,16:00,4.0,��쓌,7.0
2022/03/04,16:10,4.2,��쓌,8.3
2022/03/04,16:20,3.9,��쓌,8.7
2022/03/04,16:30,4.1,��쓌,8.5
2022/03/04,16:40,4.1,��쓌,8.7
2022/03/04,16:50,4.0,��쓌,7.5
2022/03/04,17:00,4.1,��쓌,8.2
2022/03/04,17:10,4.0,��쓌,7.5
2022/03/04,17:20,3.9,��쓌,7.0
2022/03/04,17:30,4.0,��,6.7
2022/03/04,17:40,4.0,��,6.9
2022/03/04,17:50,3.9,��,6.9
2022/03/04,18:00,4.0,��,6.8
2022/03/04,18:10,4.1,��,7.0
2022/03/04,18:20,4.1,��,6.4
2022/03/04,18:30,4.0,��,7.2
2022/03/04,18:40,4.1,��,7.6
2022/03/04,18:50,3.9,��,7.9
2022/03/04,19:00,3.9,��,7.7
2022/03/04,19:10,4.3,��,7.4
2022/03/04,19:20,4.1,��,7.7
2022/03/04,19:30,4.0,��,7.2
2022/03/04,19:40,4.1,��,8.2
2022/03/04,19:50,4.0,��,6.9
2022/03/04,20:00,4.2,��,7.4
2022/03/04,20:10,4.1,��,6.5
2022/03/04,20:20,4.1,��,7.2
2022/03/04,20:30,4.0,��,7.4
2022/03/04,20:40,3.9,��,6.7
2022/03/04,20:50,4.2,��,7.4
2022/03/04,21:00,3.8,��,5.2
2022/03/04,21:10,4.0,��,5.7
2022/03/04,21:20,4.1,��,3.8
2022/03/04,21:30,4.1,��,4.7
2022/03/04,21:40,3.9,��,5.0
2022/03/04,21:50,4.1,��쐼,5.0
2022/03/04,22:00,4.0,��,4.7
2022/03/04,22:10,3.9,��쐼,4.5
2022/03/04,22:20,4.1,��쐼,4.2
2022/03/04,22:30,4.0,��쐼,4.5
2022/03/04,22:40,4.1,��쐼,4.4
2022/03/04,22:50,4.1,��쐼,4.1
2022/03/04,23:00,4.1,��쐼,4.2
2022/03/04,23:10,3.9,��쐼,3.6
2022/03/04,23:20,4.2,��쐼,3.5
2022/03/04,23:30,4.1,��쐼,3.0
2022/03/04,23:40,4.1,�쐼,2.8
2022/03/04,23:50,4.0,��쐼,3.2
